Location: Brno
(49.2000°N, 16.6330°E)
Time: 18:29:57
(UTC+01:00)

Cosmos 2227 - Visible Passes

Search period start: 30 October 2014 00:00
Search period end: 09 November 2014 00:00
Orbit: 835 x 862 km, 71.0° (Epoch: 29 October)

Date Brightness Start Highest point End Pass type
(mag) Time Alt. Az. Time Alt. Az. Time Alt. Az.
30 Oct 4.7 04:21:41 10° S 04:27:19 60° ESE 04:32:58 10° NE visible
31 Oct 4.7 04:09:32 15° S 04:14:17 59° ESE 04:19:56 10° NE visible
31 Oct 5.0 05:53:50 10° WSW 05:58:52 31° NW 06:03:55 10° NNE visible
01 Nov 4.7 03:58:17 28° S 04:01:16 59° ESE 04:06:53 10° NE visible
01 Nov 5.0 05:40:47 10° WSW 05:45:49 31° NW 05:50:53 10° NNE visible
02 Nov 4.7 03:46:43 44° SSE 03:48:14 58° ESE 03:53:51 10° NE visible
02 Nov 5.0 05:28:44 15° WSW 05:32:47 31° NW 05:37:51 10° NNE visible
03 Nov 4.7 03:34:54 56° SE 03:35:12 57° ESE 03:40:48 10° NE visible
03 Nov 5.0 05:16:55 21° W 05:19:44 32° NW 05:24:49 10° NNE visible
04 Nov 4.9 03:22:56 52° E 03:22:56 52° E 03:27:46 10° NE visible
04 Nov 5.0 05:04:56 27° W 05:06:42 32° NW 05:11:48 10° NNE visible
05 Nov 5.3 03:10:51 41° ENE 03:10:51 41° ENE 03:14:44 10° NE visible
05 Nov 4.9 04:52:50 31° WNW 04:53:39 32° NW 04:58:46 10° NNE visible
06 Nov 5.8 02:58:39 31° NE 02:58:39 31° NE 03:01:42 10° NE visible
06 Nov 5.0 04:40:38 32° NW 04:40:38 32° NW 04:45:44 10° NNE visible
07 Nov 6.2 02:46:22 24° NE 02:46:22 24° NE 02:48:39 10° NE visible
07 Nov 5.1 04:28:20 32° NNW 04:28:20 32° NNW 04:32:43 10° NNE visible
07 Nov 6.2 06:12:14 10° NW 06:13:43 11° NNW 06:15:12 10° N visible
08 Nov 6.5 02:34:00 19° NE 02:34:00 19° NE 02:35:37 10° NE visible
08 Nov 5.3 04:15:59 29° NNW 04:15:59 29° NNW 04:19:41 10° NNE visible
08 Nov 6.2 05:59:08 10° NW 06:00:40 11° NNW 06:02:12 10° N visible
